TimeMDT,TemperatureF,Dew PointF,Humidity,Sea Level PressureIn,VisibilityMPH,Wind Direction,Wind SpeedMPH,Gust SpeedMPH,PrecipitationIn,Events,Conditions,WindDirDegrees,DateUTC
12:53 AM,66.0,44.1,45,29.73,10.0,East,3.5,-,N/A,,Clear,90,2013-05-15 06:53:00
1:53 AM,64.0,45.0,50,29.72,10.0,West,5.8,-,N/A,,Clear,260,2013-05-15 07:53:00
2:53 AM,64.0,44.1,48,29.72,10.0,WSW,4.6,-,N/A,,Clear,250,2013-05-15 08:53:00
3:53 AM,57.9,44.1,60,29.72,10.0,West,5.8,-,N/A,,Clear,270,2013-05-15 09:53:00
4:53 AM,57.0,43.0,59,29.74,10.0,NNW,16.1,-,N/A,,Clear,330,2013-05-15 10:53:00
5:53 AM,55.9,44.1,64,29.74,10.0,NW,5.8,-,N/A,,Clear,310,2013-05-15 11:53:00
6:53 AM,60.1,46.0,60,29.76,10.0,NNE,8.1,-,N/A,,Clear,30,2013-05-15 12:53:00
7:53 AM,64.0,46.0,52,29.76,10.0,NE,9.2,-,N/A,,Clear,40,2013-05-15 13:53:00
8:53 AM,68.0,44.1,42,29.77,10.0,NNE,8.1,-,N/A,,Clear,20,2013-05-15 14:53:00
9:53 AM,75.9,44.1,32,29.76,10.0,NNE,11.5,-,N/A,,Clear,30,2013-05-15 15:53:00
10:53 AM,75.0,41.0,29,29.78,10.0,NE,13.8,-,N/A,,Clear,40,2013-05-15 16:53:00
11:53 AM,78.1,39.9,25,29.78,10.0,ENE,15.0,-,N/A,,Clear,60,2013-05-15 17:53:00
12:53 PM,80.1,41.0,25,29.77,10.0,NE,17.3,20.7,N/A,,Clear,50,2013-05-15 18:53:00
1:53 PM,82.0,42.1,24,29.76,10.0,East,17.3,25.3,N/A,,Clear,100,2013-05-15 19:53:00
2:53 PM,82.0,43.0,25,29.74,10.0,ENE,16.1,23.0,N/A,,Clear,70,2013-05-15 20:53:00
3:53 PM,84.0,41.0,22,29.72,10.0,East,11.5,23.0,N/A,,Clear,80,2013-05-15 21:53:00
4:53 PM,84.9,41.0,21,29.70,10.0,East,9.2,19.6,N/A,,Clear,100,2013-05-15 22:53:00
5:53 PM,82.9,43.0,24,29.69,10.0,East,11.5,-,N/A,,Clear,90,2013-05-15 23:53:00
6:53 PM,79.0,42.1,27,29.70,10.0,East,10.4,-,N/A,,Clear,100,2013-05-16 00:53:00
7:53 PM,70.0,41.0,35,29.74,10.0,East,3.5,-,N/A,,Clear,100,2013-05-16 01:53:00
8:53 PM,66.0,44.1,45,29.75,10.0,ESE,6.9,-,N/A,,Clear,120,2013-05-16 02:53:00
9:53 PM,63.0,45.0,52,29.74,10.0,SSE,9.2,-,N/A,,Clear,150,2013-05-16 03:53:00
10:53 PM,64.9,46.0,50,29.76,10.0,South,12.7,-,N/A,,Clear,180,2013-05-16 04:53:00
11:53 PM,66.0,48.0,52,29.77,10.0,West,15.0,-,N/A,,Clear,260,2013-05-16 05:53:00